Location: Newark
(55.7083°N, 13.1992°E)
Time: 00:27:36
(UTC+00:00)

N. Korean satellite - Pass Details

Date: 29 January 2020
Orbit: 456 x 505 km, 97.2° (Epoch: 27 February)

Event Time Altitude Azimuth Distance (km) Brightness Sun altitude
Rises 05:31:05 0° 11° (N) 2,546 10.2 -13.3°
Reaches altitude 10° 05:33:09 10° 8° (N) 1,670 9.2 -13.1°
Maximum altitude 05:36:41 59° 288° (WNW) 568 6.5 -12.6°
Drops below altitude 10° 05:40:15 10° 209° (SSW) 1,684 9.2 -12.1°
Sets 05:42:21 0° 206° (SSW) 2,569 10.1 -11.8°
